Date String (YYYY-MM-DD hh:mm:ss) UTC,Instrument flags,absolute air pressure of the measurement (hPa),sample flow rate (lpm),inlet stack bypass flow (lpm),air temperature of the measurement (°C),ambient temperature measured by the external sensor (°C),aerosol sample conditioner tube jacket temperature (°C),OPC LED temperature (°C),internal box temperature (°C),relative humidity of the measurement (%),span deviation,mass concentration of particles derived from Lorenz-Mie calculation of OPC scattering (μg/m³),mass concentration of particles derived from Lorenz-Mie calculation of OPC scattering (μg/m³),mass concentration of particles derived from Lorenz-Mie calculation of OPC scattering (μg/m³)
DateTimeUTC,F1_M11,P_M11,Q1_M11,Q2_M11,T1_M11,T2_M11,T3_M11,T4_M11,T5_M11,U1_M11,ZSPAN_M11,X2_M11,X0_M11,X1_M11
2023-09-24 10:00:00,SystemResetWarning,0831.6,5.01,000.00,028.7,027.2,000.0,037.1,030.3,10.0,0000.0,0003.60,0007.51,0003.13
2023-09-24 10:01:00,SystemResetWarning,0831.6,5.00,000.00,028.7,027.2,000.0,037.1,030.2,10.0,0000.0,0003.59,0006.92,0003.13
2023-09-24 10:02:00,SystemResetWarning,0831.6,5.01,000.00,028.7,027.2,000.0,037.1,030.2,10.1,0000.0,0003.59,0006.79,0003.13
2023-09-24 10:03:00,SystemResetWarning,0831.7,5.01,000.00,028.7,027.2,000.0,037.1,030.3,10.1,0000.0,0003.57,0006.59,0003.13
2023-09-24 10:04:00,SystemResetWarning,0831.6,4.99,000.00,028.7,027.2,000.0,037.1,030.3,10.1,0000.0,0003.57,0006.60,0003.14
2023-09-24 10:05:00,SystemResetWarning,0831.7,4.99,000.00,028.7,027.2,000.0,037.1,030.3,10.1,0000.0,0003.59,0006.65,0003.14
2023-09-24 10:06:00,SystemResetWarning,0831.6,5.00,000.00,028.7,027.2,000.0,037.1,030.3,10.1,0000.0,0003.60,0007.32,0003.14
2023-09-24 10:07:00,SystemResetWarning,0831.6,5.00,000.00,028.7,027.2,000.0,037.1,030.3,10.1,0000.0,0003.58,0007.51,0003.13
2023-09-24 10:08:00,SystemResetWarning,0831.6,5.00,000.00,028.7,027.2,000.0,037.1,030.2,10.0,0000.0,0003.54,0007.82,0003.13
2023-09-24 10:09:00,SystemResetWarning,0831.7,5.00,000.00,028.7,027.2,000.0,037.2,030.2,10.2,0000.0,0003.56,0007.89,0003.12
2023-09-24 10:10:00,SystemResetWarning,0831.6,5.00,000.00,028.7,027.2,000.0,037.2,030.2,10.2,0000.0,0003.56,0007.90,0003.12
2023-09-24 10:11:00,SystemResetWarning,0831.7,5.00,000.00,028.7,027.2,000.0,037.1,030.2,10.2,0000.0,0003.58,0007.90,0003.12
2023-09-24 10:12:00,SystemResetWarning,0831.7,5.00,000.00,028.7,027.2,000.0,037.1,030.2,10.2,0000.0,0003.60,0008.51,0003.13
2023-09-24 10:13:00,SystemResetWarning,0831.7,5.00,000.00,028.7,027.2,000.0,037.1,030.2,10.1,0000.0,0003.57,0008.34,0003.13
2023-09-24 10:14:00,SystemResetWarning,0831.7,4.99,000.00,028.7,027.2,000.0,037.1,030.2,10.2,0000.0,0003.55,0008.30,0003.13
2023-09-24 10:15:00,SystemResetWarning,0831.7,4.99,000.00,028.7,027.1,000.0,037.1,030.1,10.4,0000.0,0003.54,0008.35,0003.13
2023-09-24 10:16:00,SystemResetWarning,0831.7,5.00,000.00,028.7,027.1,000.0,037.1,030.2,10.3,0000.0,0003.52,0008.29,0003.12
2023-09-24 10:17:00,SystemResetWarning,0831.7,5.01,000.00,028.7,027.1,000.0,037.1,030.1,11.0,0000.0,0003.49,0007.86,0003.12
2023-09-24 10:18:00,SystemResetWarning,0831.7,5.01,000.00,028.7,027.1,000.0,037.1,030.1,11.7,0000.0,0003.50,0007.53,0003.13
2023-09-24 10:19:00,SystemResetWarning,0831.7,5.00,000.00,028.6,027.1,000.0,037.1,030.1,11.0,0000.0,0003.52,0007.62,0003.13
2023-09-24 10:20:00,SystemResetWarning,0832.0,4.99,000.00,028.6,027.1,000.0,037.1,030.1,11.3,0000.0,0003.51,0007.68,0003.14
2023-09-24 10:21:00,SystemResetWarning,0832.3,4.99,000.00,028.6,027.0,000.0,037.1,030.1,11.6,0000.0,0003.49,0008.07,0003.15
2023-09-24 10:22:00,SystemResetWarning,0832.1,4.99,000.00,028.6,027.0,000.0,037.1,030.1,11.4,0000.0,0003.52,0008.26,0003.15
2023-09-24 10:23:00,SystemResetWarning,0832.3,5.01,000.00,028.6,027.0,000.0,037.1,030.0,11.4,0000.0,0003.52,0007.78,0003.15
2023-09-24 10:24:00,SystemResetWarning,0831.9,5.01,000.00,028.6,027.0,000.0,037.1,030.1,11.3,0000.0,0003.51,0008.52,0003.15
2023-09-24 10:25:00,SystemResetWarning,0831.8,5.00,000.00,028.6,027.0,000.0,037.1,030.0,11.5,0000.0,0003.51,0008.78,0003.14
2023-09-24 10:26:00,SystemResetWarning,0831.8,4.99,000.00,028.6,027.0,000.0,037.1,030.0,11.5,0000.0,0003.52,0009.14,0003.14
2023-09-24 10:27:00,SystemResetWarning,0831.8,5.00,000.00,028.6,027.0,000.0,037.1,030.0,11.4,0000.0,0003.52,0009.14,0003.15
2023-09-24 10:28:00,SystemResetWarning,0831.8,5.00,000.00,028.6,027.0,000.0,037.1,030.0,11.1,0000.0,0003.52,0009.25,0003.15
2023-09-24 10:29:00,SystemResetWarning,0831.9,5.00,000.00,028.6,027.0,000.0,037.1,030.0,10.7,0000.0,0003.53,0010.12,0003.15
2023-09-24 10:30:00,SystemResetWarning,0831.8,5.01,000.00,028.6,027.0,000.0,037.0,030.0,10.7,0000.0,0003.51,0009.74,0003.14
2023-09-24 10:31:00,SystemResetWarning,0831.8,5.00,000.00,028.6,027.0,000.0,037.0,030.0,10.9,0000.0,0003.50,0009.44,0003.13
2023-09-24 10:32:00,SystemResetWarning,0831.8,4.99,000.00,028.6,027.0,000.0,037.0,030.0,11.1,0000.0,0003.49,0009.25,0003.13
2023-09-24 10:33:00,SystemResetWarning,0831.8,4.99,000.00,028.6,027.0,000.0,037.0,030.0,11.0,0000.0,0003.50,0009.07,0003.12
2023-09-24 10:34:00,SystemResetWarning,0831.9,5.00,000.00,028.6,027.0,000.0,037.0,030.0,10.8,0000.0,0003.46,0009.63,0003.11
2023-09-24 10:35:00,SystemResetWarning,0831.8,5.01,000.00,028.6,027.0,000.0,037.0,030.0,10.9,0000.0,0003.47,0008.91,0003.12
2023-09-24 10:36:00,SystemResetWarning,0831.8,5.01,000.00,028.6,027.0,000.0,037.0,030.0,10.9,0000.0,0003.47,0008.55,0003.12
2023-09-24 10:37:00,SystemResetWarning,0831.8,5.00,000.00,028.6,027.0,000.0,037.0,030.0,10.9,0000.0,0003.47,0008.22,0003.13
2023-09-24 10:38:00,SystemResetWarning,0831.9,5.00,000.00,028.6,027.0,000.0,037.0,030.0,10.8,0000.0,0003.46,0008.41,0003.11
2023-09-24 10:39:00,SystemResetWarning,0831.8,5.00,000.00,028.6,027.0,000.0,037.0,030.0,10.9,0000.0,0003.46,0008.49,0003.11
2023-09-24 10:40:00,SystemResetWarning,0831.8,5.00,000.00,028.5,027.0,000.0,037.0,030.0,10.9,0000.0,0003.48,0007.70,0003.10
2023-09-24 10:41:00,SystemResetWarning,0831.9,4.99,000.00,028.5,027.0,000.0,037.0,030.0,11.0,0000.0,0003.51,0007.76,0003.11
2023-09-24 10:42:00,SystemResetWarning,0831.9,5.00,000.00,028.5,027.0,000.0,037.0,030.0,11.0,0000.0,0003.52,0007.80,0003.11
2023-09-24 10:43:00,SystemResetWarning,0831.9,5.02,000.00,028.5,027.0,000.0,037.0,030.0,11.0,0000.0,0003.49,0007.63,0003.11
2023-09-24 10:44:00,SystemResetWarning,0831.8,5.00,000.00,028.5,027.0,000.0,037.0,030.0,11.0,0000.0,0003.48,0007.54,0003.11
2023-09-24 10:45:00,SystemResetWarning,0831.9,4.99,000.00,028.5,027.0,000.0,037.0,030.0,11.0,0000.0,0003.46,0006.75,0003.10
2023-09-24 10:46:00,SystemResetWarning,0831.9,4.99,000.00,028.5,027.0,000.0,037.0,030.0,11.0,0000.0,0003.48,0006.84,0003.10
2023-09-24 10:47:00,SystemResetWarning,0831.9,5.00,000.00,028.5,027.0,000.0,037.0,030.0,11.1,0000.0,0003.49,0006.98,0003.11
2023-09-24 10:48:00,SystemResetWarning,0831.9,5.01,000.00,028.5,027.0,000.0,037.0,030.0,11.1,0000.0,0003.49,0008.28,0003.10
2023-09-24 10:49:00,SystemResetWarning,0831.8,5.01,000.00,028.5,027.0,000.0,037.0,030.0,11.1,0000.0,0003.50,0008.46,0003.10
2023-09-24 10:50:00,SystemResetWarning,0831.8,5.00,000.00,028.5,027.0,000.0,037.0,030.0,11.1,0000.0,0003.54,0008.48,0003.11
2023-09-24 10:51:00,SystemResetWarning,0831.8,4.99,000.00,028.5,027.0,000.0,037.0,030.0,11.1,0000.0,0003.58,0008.59,0003.11
2023-09-24 10:52:00,SystemResetWarning,0831.8,5.00,000.00,028.5,027.0,000.0,037.0,030.0,11.1,0000.0,0003.55,0008.55,0003.10
2023-09-24 10:53:00,SystemResetWarning,0831.8,5.02,000.00,028.5,027.0,000.0,037.0,030.0,11.1,0000.0,0003.54,0008.51,0003.10
2023-09-24 10:54:00,SystemResetWarning,0831.8,5.00,000.00,028.5,027.0,000.0,037.0,030.0,11.1,0000.0,0003.57,0008.71,0003.10
2023-09-24 10:55:00,SystemResetWarning,0831.8,5.00,000.00,028.5,027.0,000.0,036.9,030.0,11.1,0000.0,0003.61,0009.48,0003.09
2023-09-24 10:56:00,SystemResetWarning,0831.8,4.99,000.00,028.5,027.0,000.0,037.0,030.0,11.1,0000.0,0003.63,0010.04,0003.10
2023-09-24 10:57:00,SystemResetWarning,0832.0,4.99,000.00,028.5,027.0,000.0,037.0,030.0,11.1,0000.0,0003.64,0009.86,0003.10
2023-09-24 10:58:00,SystemResetWarning,0832.1,5.00,000.00,028.5,027.0,000.0,036.9,030.0,11.1,0000.0,0003.63,0009.80,0003.08
2023-09-24 10:59:00,SystemResetWarning,0831.9,5.01,000.00,028.5,027.0,000.0,036.9,030.1,11.1,0000.0,0003.64,0008.87,0003.07
